SCP
3 4 5 5 4 4 3 3 3 2 2 2 1 1 1 1 1 1 0 0 0 0 0 0 0 0 0 0 0 0 0 0 0 0 0 0 0 0 0 0 0 0 0
3 4 5 5 5 4 4 3 3 3 2 2 2 1 1 1 1 1 1 0 0 0 0 0 0 0 0 0 0 0 0 0 0 0 0 0 0 0 0 0 0 0 0
3 4 5 5 5 5 4 4 3 3 3 2 2 2 1 1 1 1 1 1 1 1 1 1 0 0 0 0 0 0 0 0 0 0 0 0 0 0 0 0 0 0 0
3 4 5 5 5 5 5 4 4 3 3 3 2 2 2 1 1 1 1 1 1 1 1 1 0 0 0 0 0 0 0 0 0 0 0 0 0 0 0 0 0 0 0
3 4 4 5 5 5 5 5 4 4 3 3 3 2 2 2 1 1 1 1 1 1 1 1 0 0 0 0 0 0 0 0 0 0 0 0 0 0 0 0 0 0 0
4 4 5 5 5 5 5 5 4 4 3 3 2 2 2 2 1 1 1 1 1 1 1 0 0 0 0 0 0 0 0 0 0 0 0 0 0 0 0 0 0 0 0
4 5 5 5 5 5 5 4 4 3 3 2 2 2 2 2 2 1 1 1 1 1 1 0 0 0 0 0 0 0 0 0 0 0 0 0 0 0 0 0 0 0 0
5 5 5 5 5 5 4 4 3 3 3 2 2 2 2 2 1 1 1 1 1 1 1 1 0 0 0 0 0 0 0 0 0 0 0 0 0 0 0 0 0 0 0
5 5 5 5 5 5 4 4 3 3 3 2 2 2 2 1 1 1 1 1 1 1 1 1 0 0 0 0 0 0 0 0 0 0 0 0 0 0 0 0 0 0 0
5 5 5 5 5 4 4 3 3 3 2 2 2 2 1 1 1 1 1 1 1 1 1 1 0 0 0 0 0 0 0 0 0 0 0 0 0 0 0 0 0 0 0
4 4 5 5 5 4 3 3 3 2 2 2 2 1 1 1 1 1 1 1 1 1 1 0 0 0 0 0 0 0 0 0 0 0 0 0 0 0 0 0 0 0 0
4 4 5 5 5 4 4 3 3 3 2 2 1 1 1 1 1 1 1 1 1 1 0 0 0 0 0 0 0 0 0 0 0 0 0 0 0 0 0 0 0 0 0
4 4 5 5 5 4 4 4 4 3 2 1 1 1 1 1 1 1 1 1 0 0 0 0 0 0 0 0 0 0 0 0 0 0 0 0 0 0 0 0 0 0 0
4 4 5 5 4 4 4 4 4 3 2 1 1 1 1 1 1 1 1 1 0 0 0 1 0 0 0 0 0 0 0 0 0 0 0 0 0 0 0 0 0 0 0
4 4 4 4 4 4 4 4 4 3 2 2 1 1 1 1 1 1 1 1 1 0 1 1 0 0 0 0 0 0 0 0 0 0 0 0 0 0 0 0 0 0 0
3 3 4 4 4 4 4 4 3 3 2 2 1 1 1 1 1 1 1 1 1 1 1 0 0 0 0 0 0 0 0 0 0 0 0 0 0 0 0 0 0 0 0
3 3 3 4 4 3 3 3 3 2 2 2 1 1 1 1 1 1 1 1 1 1 1 0 0 0 0 0 0 0 0 0 0 0 0 0 0 0 0 0 0 0 0
3 3 3 3 3 3 3 3 3 2 2 2 1 1 1 1 1 1 1 1 1 1 1 1 1 0 0 0 0 0 0 0 0 0 0 0 1 1 0 0 0 0 0
2 2 2 2 2 3 3 3 3 2 2 2 2 2 2 2 2 2 2 1 1 1 1 1 1 1 1 0 0 0 0 0 0 0 1 1 1 1 1 0 0 0 0
2 2 2 2 2 2 2 3 3 2 2 2 2 3 2 2 2 2 2 2 2 2 1 1 1 1 1 1 1 1 1 1 1 1 1 1 1 1 1 0 0 0 0
2 2 2 2 2 2 2 2 2 2 2 2 2 3 3 2 2 2 3 2 2 2 2 2 2 1 1 1 1 1 1 1 1 1 1 1 1 1 0 0 0 0 0
1 1 1 1 1 2 2 2 2 2 2 2 2 2 2 2 3 3 3 3 3 3 4 4 3 3 2 2 2 1 1 1 1 1 0 0 0 0 0 0 0 0 0
1 1 1 1 1 1 2 2 2 2 2 2 2 2 2 2 3 3 3 3 4 4 5 5 5 4 3 3 2 2 2 2 1 1 0 0 0 0 0 0 0 0 0
0 1 1 1 1 1 2 2 2 2 2 1 2 2 2 2 2 3 3 3 4 4 5 5 5 5 4 4 3 2 2 2 2 1 1 0 0 0 0 0 0 0 0
0 0 1 1 1 1 1 1 1 1 1 1 1 2 2 2 2 2 3 3 3 4 5 5 5 5 5 5 4 3 2 2 2 1 1 0 0 0 0 0 0 0 0
0 0 1 1 1 1 1 1 1 1 1 1 1 2 2 2 2 2 2 3 3 4 5 5 6 6 6 6 5 3 2 2 1 1 1 1 0 0 0 0 0 0 0
Wind_Speed
15 19 22 21 20 19 18 17 17 17 17 18 18 18 17 17 17 16 16 16 16 16 16 16 16 16 16 16 16 16 16 16 16 16 15 14 15 15 14 12 11 13 15
18 21 22 21 20 19 18 17 16 16 16 17 18 18 18 17 17 17 17 17 17 17 17 16 17 16 16 16 16 16 16 15 15 13 11 12 12 14 14 14 14 12 15
19 21 23 20 20 19 18 17 17 17 17 17 18 18 18 18 17 17 17 17 17 17 16 16 16 16 16 15 15 15 15 14 13 8 6 11 12 14 14 14 15 15 15
19 20 21 21 20 20 19 18 17 17 17 17 17 18 18 18 17 17 17 17 17 16 16 16 16 16 15 15 14 14 14 12 9 3 7 10 11 13 14 14 14 14 14
18 19 20 20 20 20 19 18 17 17 17 16 17 17 17 18 18 17 17 16 16 15 15 15 15 15 14 13 13 13 13 11 5 6 9 9 10 12 13 13 13 13 13
18 18 20 19 20 19 19 18 17 17 17 16 16 17 17 18 17 17 16 16 15 15 15 15 15 14 13 13 13 12 11 8 5 8 8 8 9 11 12 12 12 12 12
18 17 20 19 20 19 19 18 17 17 17 16 17 17 17 17 17 17 16 16 15 15 15 15 14 13 12 12 12 11 9 3 6 8 7 8 9 10 11 11 11 11 11
16 17 18 18 17 18 18 17 16 16 16 16 17 17 17 17 17 17 16 16 15 15 14 14 14 13 12 11 11 10 7 2 6 7 7 8 8 9 10 10 9 9 9
16 16 16 18 17 16 15 15 15 14 14 14 15 15 14 15 16 17 16 15 15 14 13 13 13 12 11 11 10 9 6 1 5 5 6 6 7 8 8 8 8 8 8
15 15 16 16 16 16 15 14 13 13 12 13 13 12 12 13 14 14 14 13 13 13 12 12 12 11 11 10 9 8 6 4 5 5 4 6 5 6 6 6 6 6 6
14 14 15 15 15 15 15 14 14 13 12 13 12 13 12 12 14 12 13 11 11 12 12 12 11 11 9 9 8 7 5 3 4 3 3 5 3 4 4 4 4 4 4
16 15 14 15 14 13 11 12 11 11 12 12 12 14 11 10 9 10 12 10 10 10 10 10 10 10 7 7 7 7 3 4 3 3 3 2 2 3 3 3 3 3 3
15 15 14 14 14 13 10 10 8 7 8 10 12 12 9 8 8 8 7 8 9 10 9 9 9 7 6 4 5 4 3 2 2 2 4 2 2 3 3 3 3 3 3
12 14 14 15 14 13 11 9 9 7 7 7 10 12 9 6 7 8 6 7 7 6 7 7 5 7 6 6 5 5 4 3 2 1 3 2 3 4 4 4 4 4 5
11 13 15 15 15 13 11 9 9 8 8 8 8 10 10 8 8 8 6 6 7 6 7 6 6 7 6 6 5 4 4 4 3 3 3 4 4 4 5 6 6 6 6
10 11 12 14 14 13 11 9 9 9 8 8 8 10 11 8 8 7 7 7 6 6 6 6 7 6 5 5 5 5 5 4 4 4 3 4 6 5 6 7 7 7 7
10 10 11 13 13 14 13 11 8 9 9 8 8 10 10 9 9 8 7 7 7 7 7 6 6 5 5 4 5 5 4 5 4 5 4 3 4 6 7 8 8 8 7
8 9 9 10 12 13 11 10 8 8 9 8 7 8 11 10 10 8 7 7 7 6 6 6 6 6 5 5 5 4 4 4 6 5 5 4 4 4 5 7 7 7 7
8 9 9 10 11 11 10 8 8 8 8 7 7 8 10 11 11 9 7 7 8 7 6 6 6 6 5 5 4 4 4 4 5 5 6 5 5 4 4 4 5 5 6
6 7 8 8 10 10 8 7 6 7 7 7 7 8 11 10 11 10 7 9 9 7 7 7 7 6 5 4 4 4 5 5 4 5 5 5 4 4 4 4 4 4 5
3 5 8 8 9 8 7 7 7 7 6 6 7 10 11 11 11 10 8 9 9 8 9 9 7 8 6 5 4 4 5 5 5 4 4 4 4 3 3 3 3 3 2
1 2 4 6 7 8 7 6 5 5 5 6 5 8 10 11 11 9 10 8 9 8 9 9 8 6 5 5 5 4 4 5 5 4 4 3 3 2 3 3 3 3 3
0 2 2 5 7 7 7 5 4 4 4 5 6 6 9 10 11 10 11 9 9 9 8 10 10 9 7 6 6 5 4 4 2 4 4 3 3 3 2 2 2 2 3
0 1 2 3 4 5 6 6 8 6 6 6 6 6 7 9 10 10 10 10 9 8 8 9 9 8 8 6 5 6 5 3 3 3 4 4 3 3 3 2 2 2 2
0 1 2 3 2 3 5 6 7 6 5 4 6 7 7 7 8 9 9 9 9 8 8 9 9 9 7 7 5 4 5 5 6 5 5 4 4 3 3 3 2 2 2
1 2 2 3 2 3 4 5 6 6 5 5 7 7 6 5 6 8 9 8 8 7 8 8 8 9 7 7 6 5 5 5 5 6 7 6 5 3 3 3 3 2 1
Wind_Direction
162 159 156 157 154 152 152 151 151 151 151 152 151 148 146 143 140 138 136 133 129 126 123 120 116 112 107 102 98 96 93 89 85 82 79 77 78 78 73 68 75 75 70
157 158 155 157 155 154 153 152 151 151 151 152 151 148 147 144 142 140 138 134 132 129 126 121 116 111 108 104 101 99 97 94 91 89 92 87 77 77 74 66 64 75 72
156 157 157 157 156 154 154 152 153 153 152 152 152 149 148 145 143 141 139 136 133 130 126 121 117 113 109 107 104 102 100 97 95 96 113 95 87 80 80 78 77 77 74
157 158 160 155 156 155 154 154 155 155 155 154 153 150 149 147 144 142 140 137 133 129 125 121 118 115 111 110 108 105 103 100 98 115 94 89 89 84 82 81 80 77 74
158 160 154 156 157 156 155 155 156 156 156 156 154 152 150 148 146 143 140 136 131 127 124 122 121 118 115 114 112 109 106 102 105 97 88 88 87 86 84 82 80 79 77
161 161 153 158 157 156 156 157 157 157 157 156 154 153 152 150 148 143 138 133 130 128 128 127 125 122 118 117 115 112 110 118 136 96 94 91 91 92 90 87 84 82 80
162 160 157 160 159 158 158 158 158 158 158 158 156 155 153 151 148 142 137 135 133 133 133 132 130 126 122 120 118 115 112 108 101 98 93 90 91 95 93 90 88 85 83
161 159 158 159 158 158 159 160 159 158 158 157 156 155 152 148 146 142 140 139 139 138 137 134 132 130 127 124 121 119 119 133 108 101 96 93 91 97 95 92 90 88 86
162 159 160 163 160 158 157 158 157 156 156 156 155 152 147 144 145 145 143 143 142 141 138 135 134 133 130 127 125 122 111 76 116 105 103 99 99 102 100 99 96 92 89
167 165 163 165 165 164 161 157 154 152 152 151 147 143 139 141 145 145 147 143 143 142 139 137 137 135 131 129 128 126 132 195 123 124 114 104 110 111 109 106 103 99 96
172 169 166 166 166 166 163 157 155 149 145 145 141 136 146 155 154 155 147 139 142 143 142 141 140 135 132 131 131 139 179 163 127 116 109 102 130 127 123 121 116 112 109
176 173 171 169 166 164 161 162 165 162 160 166 160 159 163 161 158 154 133 136 139 140 142 141 138 144 165 152 146 178 180 159 139 135 111 117 169 161 150 146 146 144 141
180 174 175 172 169 166 164 167 165 164 166 168 165 166 164 158 154 155 154 150 152 157 157 150 162 171 175 159 167 179 168 165 161 145 129 150 220 204 193 189 189 189 191
182 180 176 175 172 171 168 170 168 165 166 168 170 169 167 163 165 164 167 168 169 174 169 175 182 176 178 174 182 178 175 186 191 184 131 166 246 234 224 223 219 218 214
185 182 179 178 174 173 169 171 174 170 170 170 172 176 174 171 171 168 170 172 177 176 178 181 186 181 185 185 189 192 196 202 206 215 175 178 235 250 241 237 235 233 231
187 186 183 180 178 175 174 174 176 173 171 172 176 182 181 178 175 174 175 178 181 184 184 187 189 187 193 197 199 203 212 215 222 229 236 191 207 238 249 247 245 244 243
192 184 185 181 181 178 178 177 179 175 174 177 178 184 186 183 180 179 182 184 185 185 186 190 190 199 199 203 212 219 226 232 233 236 237 245 220 212 233 245 249 251 253
188 186 183 181 182 180 179 176 179 179 177 178 179 185 189 187 184 183 187 190 187 185 189 191 194 199 201 210 217 219 228 232 244 246 242 240 245 239 217 222 244 253 259
183 182 178 185 181 178 176 174 180 177 179 180 182 187 191 190 188 189 191 189 187 189 193 192 201 204 206 214 225 232 238 241 247 247 248 247 246 249 254 198 216 249 263
177 175 178 184 182 176 172 169 175 177 180 184 187 191 192 192 192 192 191 191 188 190 194 196 199 204 212 215 223 238 246 247 248 245 247 245 242 242 247 250 228 214 230
152 177 180 183 183 175 176 176 177 183 182 188 195 196 197 196 194 195 193 194 193 195 197 198 199 203 206 205 221 235 238 236 238 235 236 237 227 228 239 246 254 260 223
118 157 180 186 184 181 185 178 179 179 186 190 194 200 201 200 198 197 198 197 197 198 199 200 197 202 200 199 214 227 235 219 211 222 224 229 229 214 227 240 243 249 266
86 176 195 192 187 180 180 173 173 174 180 188 194 198 202 201 200 201 204 202 200 202 202 201 199 202 203 200 212 220 230 232 202 196 208 218 217 216 217 218 239 255 264
208 177 202 189 191 181 175 181 186 196 204 201 193 197 200 203 200 201 203 203 201 202 205 205 204 206 207 205 205 228 248 273 245 228 201 212 224 237 232 221 231 245 267
59 143 183 169 174 187 190 190 196 207 210 202 193 195 198 201 202 200 200 201 201 202 205 202 201 204 206 210 207 202 218 233 245 253 251 232 225 228 237 246 253 254 254
49 115 133 145 161 178 179 188 198 204 205 208 200 194 198 199 199 201 200 201 202 202 206 206 203 204 206 211 212 209 210 213 216 227 245 251 249 232 227 237 242 240 238